| time (UTC) | temp F | wind direction | speed MPH | gust MPH | rain 1hr in | rain 24hr in | rain mn in | humidity % | barometer mb |
| 20260509142535 | 58 | 0 | 0.0 | 3.0 | 0.00 | 0.00 | 0.00 | 59 | 1013.4 |
| 20260509142034 | 58 | 20 | 0.0 | 3.0 | 0.00 | 0.00 | 0.00 | 57 | 1013.2 |
| 20260509141545 | 58 | 338 | 0.0 | 4.0 | 0.00 | 0.00 | 0.00 | 58 | 1013.2 |
| 20260509141034 | 57 | 2 | 0.0 | 5.0 | 0.00 | 0.00 | 0.00 | 60 | 1013.2 |
| 20260509140537 | 57 | 55 | 2.0 | 5.0 | 0.00 | 0.00 | 0.00 | 62 | 1013.2 |
| 20260509140100 | 57 | 73 | 1.0 | 3.0 | 0.00 | 0.00 | 0.00 | 63 | 1013.4 |
| 20260509135536 | 56 | 90 | 1.0 | 3.0 | 0.00 | 0.00 | 0.00 | 65 | 1013.3 |
| 20260509135039 | 54 | 0 | 0.0 | 2.0 | 0.00 | 0.00 | 0.00 | 67 | 1013.3 |
| 20260509134608 | 53 | 0 | 0.0 | 1.0 | 0.00 | 0.00 | 0.00 | 71 | 1013.3 |
| 20260509134037 | 52 | 0 | 0.0 | 2.0 | 0.00 | 0.00 | 0.00 | 75 | 1013.3 |
| 20260509133537 | 51 | 0 | 0.0 | 3.0 | 0.00 | 0.00 | 0.00 | 75 | 1013.2 |
| 20260509133052 | 51 | 0 | 0.0 | 9.0 | 0.00 | 0.00 | 0.00 | 76 | 1013.2 |
| 20260509132537 | 50 | 347 | 1.0 | 9.0 | 0.00 | 0.00 | 0.00 | 76 | 1013.3 |
| 20260509132039 | 51 | 2 | 2.0 | 9.0 | 0.00 | 0.00 | 0.00 | 76 | 1013.1 |
| 20260509131548 | 51 | 360 | 2.0 | 5.0 | 0.00 | 0.00 | 0.00 | 73 | 1013.1 |
| 20260509131037 | 51 | 0 | 0.0 | 4.0 | 0.00 | 0.00 | 0.00 | 72 | 1013.1 |
| 20260509130539 | 50 | 0 | 1.0 | 4.0 | 0.00 | 0.00 | 0.00 | 75 | 1013.1 |
| 20260509130057 | 50 | 356 | 1.0 | 4.0 | 0.00 | 0.00 | 0.00 | 75 | 1013.0 |
| 20260509125536 | 50 | 357 | 0.0 | 4.0 | 0.00 | 0.01 | 0.00 | 77 | 1013.2 |
| 20260509125036 | 50 | 0 | 1.0 | 3.0 | 0.00 | 0.01 | 0.00 | 78 | 1013.1 |
| 20260509124550 | 49 | 356 | 0.0 | 3.0 | 0.00 | 0.01 | 0.00 | 78 | 1013.1 |
| 20260509124036 | 49 | 352 | 0.0 | 3.0 | 0.00 | 0.01 | 0.00 | 78 | 1012.9 |
| 20260509123536 | 49 | 357 | 1.0 | 3.0 | 0.00 | 0.01 | 0.00 | 77 | 1012.8 |
| 20260509123118 | 48 | 356 | 1.0 | 3.0 | 0.00 | 0.01 | 0.00 | 77 | 1012.9 |
| 20260509122537 | 48 | 356 | 1.0 | 4.0 | 0.00 | 0.01 | 0.00 | 76 | 1012.8 |
| 20260509122037 | 48 | 0 | 1.0 | 5.0 | 0.00 | 0.01 | 0.00 | 74 | 1012.8 |
| 20260509121607 | 49 | 2 | 1.0 | 5.0 | 0.00 | 0.01 | 0.00 | 73 | 1012.7 |
| 20260509121037 | 49 | 2 | 0.0 | 3.0 | 0.00 | 0.01 | 0.00 | 72 | 1012.7 |
| 20260509120537 | 49 | 2 | 1.0 | 2.0 | 0.00 | 0.01 | 0.00 | 71 | 1012.7 |
| 20260509120047 | 50 | 0 | 0.0 | 1.0 | 0.00 | 0.01 | 0.00 | 69 | 1012.5 |
| 20260509115536 | 50 | 0 | 0.0 | 2.0 | 0.00 | 0.04 | 0.00 | 69 | 1012.6 |
| 20260509115037 | 50 | 0 | 0.0 | 3.0 | 0.00 | 0.04 | 0.00 | 69 | 1012.4 |
| 20260509114544 | 50 | 0 | 0.0 | 3.0 | 0.00 | 0.04 | 0.00 | 69 | 1012.4 |
| 20260509114037 | 50 | 359 | 1.0 | 3.0 | 0.00 | 0.04 | 0.00 | 68 | 1012.3 |
| 20260509113539 | 51 | 0 | 0.0 | 6.0 | 0.00 | 0.04 | 0.00 | 69 | 1012.2 |
| 20260509113048 | 51 | 3 | 2.0 | 7.0 | 0.00 | 0.04 | 0.00 | 70 | 1012.3 |
| 20260509112536 | 51 | 347 | 4.0 | 7.0 | 0.00 | 0.04 | 0.00 | 71 | 1012.3 |
| 20260509112036 | 50 | 360 | 4.0 | 7.0 | 0.00 | 0.04 | 0.00 | 73 | 1012.2 |
| 20260509111603 | 50 | 6 | 2.0 | 11.0 | 0.00 | 0.04 | 0.00 | 75 | 1012.2 |
| 20260509111036 | 49 | 347 | 3.0 | 11.0 | 0.00 | 0.04 | 0.00 | 78 | 1012.1 |
| 20260509110537 | 48 | 347 | 7.0 | 11.0 | 0.00 | 0.04 | 0.00 | 82 | 1012.2 |
| 20260509110048 | 47 | 347 | 1.0 | 4.0 | 0.00 | 0.04 | 0.00 | 83 | 1012.1 |
| 20260509105537 | 47 | 347 | 1.0 | 3.0 | 0.00 | 0.04 | 0.00 | 83 | 1012.1 |
| 20260509105037 | 47 | 0 | 0.0 | 2.0 | 0.00 | 0.04 | 0.00 | 82 | 1012.0 |
| 20260509104548 | 47 | 0 | 0.0 | 2.0 | 0.00 | 0.04 | 0.00 | 82 | 1012.0 |
| 20260509104036 | 47 | 0 | 0.0 | 3.0 | 0.00 | 0.04 | 0.00 | 82 | 1012.0 |
| 20260509103536 | 47 | 0 | 0.0 | 4.0 | 0.00 | 0.04 | 0.00 | 82 | 1011.9 |
| 20260509103059 | 47 | 347 | 0.0 | 4.0 | 0.00 | 0.04 | 0.00 | 82 | 1011.9 |
| 20260509102537 | 47 | 347 | 2.0 | 4.0 | 0.00 | 0.04 | 0.00 | 80 | 1011.9 |
| 20260509102037 | 47 | 347 | 1.0 | 3.0 | 0.00 | 0.04 | 0.00 | 79 | 1011.6 |
| 20260509101615 | 47 | 0 | 1.0 | 3.0 | 0.00 | 0.04 | 0.00 | 79 | 1011.5 |
| 20260509101034 | 47 | 0 | 0.0 | 2.0 | 0.00 | 0.04 | 0.00 | 79 | 1011.5 |
| 20260509100538 | 47 | 0 | 0.0 | 2.0 | 0.00 | 0.04 | 0.00 | 79 | 1011.5 |
| 20260509100047 | 47 | 347 | 0.0 | 2.0 | 0.00 | 0.04 | 0.00 | 79 | 1011.5 |
| 20260509095535 | 47 | 0 | 0.0 | 2.0 | 0.00 | 0.04 | 0.00 | 79 | 1011.6 |
| 20260509095034 | 47 | 347 | 0.0 | 2.0 | 0.00 | 0.04 | 0.00 | 78 | 1011.7 |
| 20260509094549 | 48 | 347 | 0.0 | 1.0 | 0.00 | 0.04 | 0.00 | 78 | 1011.8 |
| 20260509094034 | 48 | 0 | 0.0 | 1.0 | 0.00 | 0.04 | 0.00 | 77 | 1011.7 |
| 20260509093537 | 48 | 0 | 0.0 | 4.0 | 0.00 | 0.04 | 0.00 | 77 | 1011.7 |
| 20260509093045 | 48 | 347 | 1.0 | 4.0 | 0.00 | 0.04 | 0.00 | 77 | 1011.8 |
| 20260509092534 | 49 | 347 | 0.0 | 3.0 | 0.00 | 0.04 | 0.00 | 77 | 1011.7 |
| 20260509092036 | 49 | 0 | 0.0 | 4.0 | 0.00 | 0.04 | 0.00 | 77 | 1011.7 |
| 20260509091551 | 49 | 347 | 1.0 | 6.0 | 0.00 | 0.04 | 0.00 | 77 | 1011.6 |
| 20260509091035 | 49 | 0 | 1.0 | 6.0 | 0.00 | 0.04 | 0.00 | 76 | 1011.6 |
| 20260509090535 | 49 | 347 | 1.0 | 4.0 | 0.00 | 0.04 | 0.00 | 76 | 1011.7 |
| 20260509085534 | 49 | 347 | 0.0 | 3.0 | 0.00 | 0.04 | 0.00 | 76 | 1011.7 |
| 20260509085037 | 49 | 347 | 0.0 | 3.0 | 0.00 | 0.04 | 0.00 | 76 | 1011.8 |
| 20260509084551 | 49 | 347 | 0.0 | 3.0 | 0.00 | 0.04 | 0.00 | 76 | 1011.7 |
| 20260509084036 | 49 | 347 | 1.0 | 3.0 | 0.00 | 0.04 | 0.00 | 77 | 1011.8 |
| 20260509083534 | 50 | 0 | 0.0 | 2.0 | 0.00 | 0.04 | 0.00 | 77 | 1011.6 |
| 20260509083053 | 50 | 356 | 0.0 | 2.0 | 0.00 | 0.04 | 0.00 | 76 | 1011.6 |
| 20260509082535 | 50 | 0 | 0.0 | 2.0 | 0.00 | 0.04 | 0.00 | 75 | 1011.6 |
| 20260509082038 | 50 | 0 | 0.0 | 3.0 | 0.00 | 0.04 | 0.00 | 74 | 1011.6 |
| 20260509081550 | 51 | 0 | 0.0 | 3.0 | 0.00 | 0.04 | 0.00 | 72 | 1011.6 |
| 20260509081035 | 51 | 347 | 1.0 | 5.0 | 0.00 | 0.04 | 0.00 | 72 | 1011.7 |
| 20260509080535 | 51 | 0 | 1.0 | 5.0 | 0.00 | 0.04 | 0.00 | 72 | 1011.7 |
| 20260509080044 | 51 | 0 | 0.0 | 3.0 | 0.00 | 0.04 | 0.00 | 71 | 1011.8 |
| 20260509075534 | 51 | 347 | 1.0 | 4.0 | 0.00 | 0.05 | 0.00 | 72 | 1011.8 |
| 20260509075035 | 51 | 0 | 1.0 | 4.0 | 0.00 | 0.05 | 0.00 | 74 | 1011.8 |
| 20260509074549 | 51 | 4 | 1.0 | 4.0 | 0.00 | 0.05 | 0.00 | 73 | 1012.1 |
| 20260509074037 | 52 | 358 | 1.0 | 3.0 | 0.00 | 0.05 | 0.00 | 74 | 1011.9 |
| 20260509073535 | 52 | 0 | 0.0 | 2.0 | 0.00 | 0.05 | 0.00 | 73 | 1012.3 |
| 20260509073101 | 52 | 6 | 0.0 | 2.0 | 0.00 | 0.05 | 0.00 | 71 | 1012.3 |
| 20260509072535 | 52 | 6 | 1.0 | 3.0 | 0.00 | 0.05 | 0.00 | 69 | 1012.5 |
| 20260509072036 | 52 | 356 | 0.0 | 3.0 | 0.00 | 0.05 | 0.00 | 68 | 1012.5 |
| 20260509071556 | 53 | 347 | 0.0 | 3.0 | 0.00 | 0.05 | 0.00 | 67 | 1012.5 |
| 20260509071037 | 53 | 5 | 0.0 | 3.0 | 0.00 | 0.05 | 0.00 | 68 | 1012.4 |
| 20260509070537 | 53 | 352 | 1.0 | 3.0 | 0.00 | 0.05 | 0.00 | 67 | 1012.4 |
| 20260509070050 | 54 | 0 | 1.0 | 3.0 | 0.00 | 0.05 | 0.00 | 65 | 1012.5 |
| 20260509065536 | 54 | 0 | 0.0 | 3.0 | 0.00 | 0.05 | 0.00 | 62 | 1012.5 |
| 20260509065036 | 54 | 0 | 0.0 | 8.0 | 0.00 | 0.05 | 0.00 | 62 | 1012.6 |
| 20260509064604 | 54 | 359 | 1.0 | 8.0 | 0.00 | 0.05 | 0.00 | 62 | 1012.5 |
| 20260509064037 | 54 | 358 | 2.0 | 8.0 | 0.00 | 0.05 | 0.00 | 63 | 1012.4 |
| 20260509063538 | 54 | 358 | 1.0 | 3.0 | 0.00 | 0.05 | 0.00 | 63 | 1012.5 |
| 20260509063048 | 54 | 0 | 0.0 | 1.0 | 0.00 | 0.05 | 0.00 | 65 | 1012.7 |
| 20260509062536 | 54 | 0 | 0.0 | 1.0 | 0.00 | 0.05 | 0.00 | 62 | 1012.8 |
| 20260509062036 | 54 | 0 | 0.0 | 4.0 | 0.00 | 0.05 | 0.00 | 63 | 1012.8 |
| 20260509061551 | 54 | 0 | 0.0 | 4.0 | 0.00 | 0.05 | 0.00 | 62 | 1012.8 |
| 20260509061036 | 54 | 358 | 1.0 | 3.0 | 0.00 | 0.05 | 0.00 | 63 | 1012.9 |
| 20260509060534 | 54 | 359 | 1.0 | 4.0 | 0.00 | 0.05 | 0.00 | 63 | 1013.0 |
| 20260509060050 | 54 | 359 | 1.0 | 4.0 | 0.00 | 0.05 | 0.00 | 64 | 1013.2 |
| 20260509055535 | 54 | 359 | 0.0 | 2.0 | 0.00 | 0.05 | 0.05 | 66 | 1013.2 |
| 20260509055034 | 54 | 359 | 0.0 | 1.0 | 0.00 | 0.05 | 0.05 | 66 | 1013.3 |
| 20260509054600 | 54 | 0 | 0.0 | 1.0 | 0.00 | 0.05 | 0.05 | 62 | 1013.4 |
| 20260509054038 | 54 | 0 | 0.0 | 1.0 | 0.00 | 0.05 | 0.05 | 61 | 1013.5 |
| 20260509053535 | 54 | 0 | 0.0 | 3.0 | 0.00 | 0.05 | 0.05 | 61 | 1013.4 |
| 20260509053055 | 55 | 359 | 0.0 | 3.0 | 0.00 | 0.05 | 0.05 | 62 | 1013.5 |
| 20260509052535 | 55 | 357 | 0.0 | 2.0 | 0.00 | 0.05 | 0.05 | 62 | 1013.6 |
| 20260509052036 | 55 | 0 | 0.0 | 3.0 | 0.00 | 0.05 | 0.05 | 61 | 1013.7 |
| 20260509051554 | 55 | 5 | 0.0 | 4.0 | 0.00 | 0.05 | 0.05 | 60 | 1013.7 |
| 20260509051034 | 55 | 0 | 1.0 | 4.0 | 0.00 | 0.05 | 0.05 | 59 | 1013.6 |
| 20260509050536 | 55 | 360 | 2.0 | 4.0 | 0.00 | 0.05 | 0.05 | 59 | 1013.7 |
| 20260509050046 | 55 | 360 | 1.0 | 2.0 | 0.00 | 0.05 | 0.05 | 59 | 1013.8 |
| 20260509045537 | 55 | 360 | 0.0 | 2.0 | 0.00 | 0.05 | 0.05 | 58 | 1013.8 |
| 20260509045034 | 56 | 0 | 0.0 | 2.0 | 0.00 | 0.05 | 0.05 | 59 | 1013.8 |
| 20260509044547 | 56 | 0 | 0.0 | 2.0 | 0.00 | 0.05 | 0.05 | 59 | 1013.8 |
| 20260509044036 | 56 | 0 | 0.0 | 3.0 | 0.00 | 0.05 | 0.05 | 56 | 1013.9 |
| 20260509043533 | 57 | 0 | 0.0 | 4.0 | 0.00 | 0.05 | 0.05 | 56 | 1013.9 |
| 20260509043045 | 57 | 0 | 1.0 | 4.0 | 0.00 | 0.05 | 0.05 | 57 | 1014.0 |
| 20260509042533 | 57 | 2 | 1.0 | 3.0 | 0.00 | 0.05 | 0.05 | 55 | 1013.9 |
| 20260509042037 | 58 | 2 | 0.0 | 5.0 | 0.00 | 0.05 | 0.05 | 54 | 1014.0 |
| 20260509041614 | 57 | 360 | 0.0 | 6.0 | 0.00 | 0.05 | 0.05 | 53 | 1014.0 |
| 20260509041034 | 57 | 360 | 2.0 | 7.0 | 0.00 | 0.05 | 0.05 | 53 | 1013.9 |
| 20260509040536 | 57 | 360 | 3.0 | 7.0 | 0.00 | 0.05 | 0.05 | 53 | 1013.9 |
| 20260509040050 | 57 | 360 | 2.0 | 5.0 | 0.00 | 0.05 | 0.05 | 53 | 1013.8 |
| 20260509035536 | 58 | 359 | 2.0 | 5.0 | 0.00 | 0.06 | 0.05 | 53 | 1013.8 |
| 20260509035037 | 58 | 359 | 1.0 | 4.0 | 0.00 | 0.06 | 0.05 | 53 | 1013.8 |
| 20260509034547 | 59 | 358 | 0.0 | 5.0 | 0.00 | 0.06 | 0.05 | 52 | 1013.7 |
| 20260509034037 | 59 | 359 | 2.0 | 5.0 | 0.00 | 0.06 | 0.05 | 51 | 1013.7 |
| 20260509033536 | 59 | 360 | 2.0 | 7.0 | 0.00 | 0.06 | 0.05 | 50 | 1013.7 |
| 20260509033047 | 59 | 359 | 3.0 | 7.0 | 0.00 | 0.06 | 0.05 | 49 | 1013.7 |
| 20260509032536 | 60 | 359 | 2.0 | 7.0 | 0.00 | 0.06 | 0.05 | 49 | 1013.6 |
| 20260509032032 | 60 | 359 | 3.0 | 7.0 | 0.00 | 0.06 | 0.05 | 48 | 1013.7 |
| 20260509031547 | 60 | 359 | 3.0 | 7.0 | 0.00 | 0.06 | 0.05 | 48 | 1013.6 |
| 20260509031034 | 60 | 359 | 2.0 | 7.0 | 0.00 | 0.06 | 0.05 | 48 | 1013.6 |
| 20260509030537 | 61 | 359 | 3.0 | 7.0 | 0.00 | 0.06 | 0.05 | 46 | 1013.6 |
| 20260509030046 | 61 | 359 | 2.0 | 5.0 | 0.00 | 0.06 | 0.05 | 46 | 1013.6 |
| 20260509025538 | 61 | 359 | 2.0 | 4.0 | 0.00 | 0.06 | 0.05 | 46 | 1013.6 |
| 20260509025038 | 62 | 360 | 2.0 | 4.0 | 0.00 | 0.06 | 0.05 | 45 | 1013.6 |
| 20260509024551 | 62 | 359 | 1.0 | 4.0 | 0.00 | 0.06 | 0.05 | 45 | 1013.6 |
| 20260509024038 | 62 | 360 | 1.0 | 4.0 | 0.00 | 0.06 | 0.05 | 44 | 1013.6 |
| 20260509023541 | 63 | 360 | 2.0 | 4.0 | 0.00 | 0.06 | 0.05 | 43 | 1013.6 |
| 20260509023104 | 63 | 360 | 0.0 | 3.0 | 0.00 | 0.06 | 0.05 | 43 | 1013.6 |
| 20260509022538 | 63 | 0 | 1.0 | 5.0 | 0.00 | 0.06 | 0.05 | 42 | 1013.6 |
| 20260509022041 | 63 | 360 | 1.0 | 5.0 | 0.00 | 0.06 | 0.05 | 42 | 1013.5 |
| 20260509021554 | 63 | 360 | 2.0 | 7.0 | 0.00 | 0.06 | 0.05 | 42 | 1013.4 |
| 20260509021037 | 64 | 360 | 3.0 | 8.0 | 0.00 | 0.06 | 0.05 | 41 | 1013.4 |
| 20260509020537 | 64 | 360 | 3.0 | 8.0 | 0.00 | 0.06 | 0.05 | 40 | 1013.3 |
| 20260509020053 | 64 | 359 | 3.0 | 8.0 | 0.00 | 0.06 | 0.05 | 39 | 1013.3 |
| 20260509015539 | 65 | 107 | 3.0 | 8.0 | 0.00 | 0.06 | 0.05 | 39 | 1013.3 |
| 20260509015039 | 65 | 170 | 4.0 | 8.0 | 0.00 | 0.06 | 0.05 | 39 | 1013.3 |
| 20260509014550 | 65 | 131 | 3.0 | 8.0 | 0.00 | 0.06 | 0.05 | 39 | 1013.2 |
| 20260509014038 | 65 | 111 | 3.0 | 9.0 | 0.00 | 0.06 | 0.05 | 39 | 1013.2 |
| 20260509013541 | 66 | 360 | 3.0 | 11.0 | 0.00 | 0.06 | 0.05 | 38 | 1013.1 |
| 20260509013054 | 66 | 1 | 5.0 | 11.0 | 0.00 | 0.06 | 0.05 | 37 | 1013.1 |
| 20260509012538 | 67 | 142 | 1.0 | 7.0 | 0.00 | 0.06 | 0.05 | 37 | 1013.1 |
| 20260509012038 | 67 | 166 | 3.0 | 7.0 | 0.00 | 0.06 | 0.05 | 36 | 1012.9 |
| 20260509011555 | 67 | 126 | 2.0 | 8.0 | 0.00 | 0.06 | 0.05 | 35 | 1012.9 |
| 20260509011042 | 67 | 137 | 1.0 | 8.0 | 0.00 | 0.06 | 0.05 | 34 | 1012.9 |
| 20260509010538 | 67 | 162 | 3.0 | 7.0 | 0.00 | 0.06 | 0.05 | 34 | 1013.0 |
| 20260509010053 | 68 | 153 | 3.0 | 7.0 | 0.00 | 0.06 | 0.05 | 34 | 1012.8 |
| 20260509005538 | 68 | 158 | 2.0 | 7.0 | 0.00 | 0.06 | 0.05 | 33 | 1013.0 |
| 20260509005037 | 68 | 149 | 3.0 | 7.0 | 0.00 | 0.06 | 0.05 | 34 | 1012.9 |
| 20260509004545 | 68 | 131 | 3.0 | 8.0 | 0.00 | 0.06 | 0.05 | 34 | 1013.0 |
| 20260509004037 | 68 | 110 | 3.0 | 8.0 | 0.00 | 0.06 | 0.05 | 33 | 1013.1 |
| 20260509003538 | 68 | 142 | 3.0 | 10.0 | 0.00 | 0.06 | 0.05 | 33 | 1013.0 |
| 20260509003049 | 68 | 185 | 5.0 | 10.0 | 0.00 | 0.06 | 0.05 | 33 | 1013.0 |
| 20260509002538 | 68 | 98 | 1.0 | 5.0 | 0.00 | 0.06 | 0.05 | 36 | 1012.9 |
| 20260509002039 | 68 | 0 | 2.0 | 5.0 | 0.00 | 0.06 | 0.05 | 34 | 1012.9 |
| 20260509001547 | 68 | 117 | 2.0 | 8.0 | 0.00 | 0.06 | 0.05 | 37 | 1012.9 |
| 20260509001039 | 68 | 154 | 2.0 | 8.0 | 0.00 | 0.06 | 0.05 | 35 | 1013.0 |
| 20260509000538 | 68 | 130 | 2.0 | 6.0 | 0.00 | 0.06 | 0.05 | 34 | 1013.0 |
| 20260509000050 | 68 | 84 | 2.0 | 5.0 | 0.00 | 0.06 | 0.05 | 35 | 1013.0 |
| 20260508235539 | 69 | 103 | 2.0 | 6.0 | 0.00 | 0.06 | 0.05 | 34 | 1013.0 |
| 20260508235039 | 69 | 88 | 2.0 | 8.0 | 0.00 | 0.06 | 0.05 | 32 | 1013.1 |
| 20260508234545 | 69 | 122 | 3.0 | 8.0 | 0.00 | 0.06 | 0.05 | 32 | 1013.2 |
| 20260508234038 | 69 | 174 | 4.0 | 8.0 | 0.00 | 0.06 | 0.05 | 32 | 1013.1 |
| 20260508233538 | 69 | 0 | 3.0 | 7.0 | 0.00 | 0.06 | 0.05 | 34 | 1013.1 |
| 20260508233103 | 70 | 148 | 2.0 | 7.0 | 0.00 | 0.06 | 0.05 | 33 | 1013.2 |
| 20260508232538 | 69 | 152 | 2.0 | 7.0 | 0.00 | 0.06 | 0.05 | 34 | 1013.2 |
| 20260508232038 | 70 | 146 | 1.0 | 10.0 | 0.00 | 0.06 | 0.05 | 32 | 1013.2 |
| 20260508231553 | 70 | 89 | 4.0 | 10.0 | 0.00 | 0.06 | 0.05 | 31 | 1013.2 |
| 20260508231038 | 70 | 87 | 3.0 | 8.0 | 0.00 | 0.06 | 0.05 | 32 | 1013.2 |
| 20260508230538 | 71 | 197 | 3.0 | 8.0 | 0.00 | 0.06 | 0.05 | 31 | 1013.2 |
| 20260508230051 | 70 | 204 | 3.0 | 8.0 | 0.00 | 0.06 | 0.05 | 31 | 1013.3 |
| 20260508225538 | 70 | 117 | 3.0 | 10.0 | 0.00 | 0.06 | 0.05 | 31 | 1013.2 |
| 20260508225039 | 70 | 153 | 3.0 | 10.0 | 0.00 | 0.06 | 0.05 | 31 | 1013.2 |
| 20260508224553 | 70 | 152 | 4.0 | 11.0 | 0.00 | 0.06 | 0.05 | 30 | 1013.2 |
| 20260508224038 | 70 | 93 | 5.0 | 12.0 | 0.00 | 0.06 | 0.05 | 32 | 1013.2 |
| 20260508223542 | 70 | 86 | 4.0 | 12.0 | 0.00 | 0.06 | 0.05 | 34 | 1013.3 |
| 20260508223049 | 69 | 95 | 4.0 | 12.0 | 0.00 | 0.06 | 0.05 | 35 | 1013.3 |
| 20260508222539 | 70 | 63 | 4.0 | 11.0 | 0.00 | 0.06 | 0.05 | 35 | 1013.3 |
| 20260508222037 | 70 | 71 | 3.0 | 11.0 | 0.00 | 0.06 | 0.05 | 34 | 1013.2 |
| 20260508221555 | 70 | 88 | 3.0 | 11.0 | 0.00 | 0.06 | 0.05 | 35 | 1013.2 |
| 20260508221038 | 70 | 184 | 1.0 | 8.0 | 0.00 | 0.06 | 0.05 | 34 | 1013.3 |
| 20260508220538 | 70 | 92 | 4.0 | 10.0 | 0.00 | 0.06 | 0.05 | 34 | 1013.2 |
| 20260508220055 | 70 | 114 | 3.0 | 10.0 | 0.00 | 0.06 | 0.05 | 35 | 1013.3 |
| 20260508215538 | 70 | 98 | 3.0 | 9.0 | 0.00 | 0.06 | 0.05 | 32 | 1013.3 |
| 20260508215038 | 69 | 102 | 4.0 | 11.0 | 0.00 | 0.06 | 0.05 | 35 | 1013.4 |
| 20260508214551 | 69 | 90 | 5.0 | 11.0 | 0.00 | 0.06 | 0.05 | 33 | 1013.4 |
| 20260508214038 | 69 | 88 | 2.0 | 8.0 | 0.00 | 0.06 | 0.05 | 34 | 1013.4 |
| 20260508213538 | 69 | 124 | 3.0 | 10.0 | 0.00 | 0.06 | 0.05 | 35 | 1013.4 |
| 20260508213048 | 69 | 108 | 3.0 | 11.0 | 0.00 | 0.06 | 0.05 | 35 | 1013.5 |
| 20260508212538 | 69 | 125 | 4.0 | 11.0 | 0.00 | 0.06 | 0.05 | 35 | 1013.5 |
| 20260508212038 | 68 | 127 | 4.0 | 11.0 | 0.00 | 0.06 | 0.05 | 37 | 1013.4 |
| 20260508211553 | 68 | 147 | 5.0 | 11.0 | 0.00 | 0.06 | 0.05 | 34 | 1013.4 |
| 20260508211041 | 68 | 140 | 6.0 | 12.0 | 0.00 | 0.06 | 0.05 | 36 | 1013.5 |
| 20260508210538 | 69 | 100 | 5.0 | 12.0 | 0.00 | 0.06 | 0.05 | 37 | 1013.5 |
| 20260508210053 | 69 | 93 | 6.0 | 11.0 | 0.00 | 0.06 | 0.05 | 35 | 1013.5 |
| 20260508205538 | 69 | 358 | 3.0 | 7.0 | 0.00 | 0.06 | 0.05 | 36 | 1013.6 |
| 20260508205038 | 69 | 94 | 2.0 | 7.0 | 0.00 | 0.06 | 0.05 | 32 | 1013.6 |
| 20260508204601 | 70 | 96 | 2.0 | 9.0 | 0.00 | 0.06 | 0.05 | 38 | 1013.7 |
| 20260508204039 | 69 | 0 | 1.0 | 9.0 | 0.00 | 0.06 | 0.05 | 34 | 1013.8 |
| 20260508203541 | 69 | 357 | 2.0 | 9.0 | 0.00 | 0.06 | 0.05 | 33 | 1013.8 |
| 20260508203052 | 68 | 81 | 4.0 | 9.0 | 0.00 | 0.06 | 0.05 | 35 | 1013.8 |
| 20260508202537 | 69 | 58 | 0.0 | 8.0 | 0.00 | 0.06 | 0.05 | 33 | 1013.7 |
| 20260508202041 | 70 | 352 | 2.0 | 8.0 | 0.00 | 0.06 | 0.05 | 34 | 1013.9 |
| 20260508201550 | 71 | 37 | 1.0 | 8.0 | 0.00 | 0.06 | 0.05 | 33 | 1013.9 |
| 20260508201038 | 71 | 331 | 3.0 | 8.0 | 0.00 | 0.06 | 0.05 | 35 | 1013.9 |
| 20260508200538 | 69 | 11 | 3.0 | 11.0 | 0.00 | 0.06 | 0.05 | 38 | 1014.1 |
| 20260508200107 | 68 | 27 | 5.0 | 11.0 | 0.00 | 0.06 | 0.05 | 33 | 1014.2 |
| 20260508195539 | 69 | 327 | 3.0 | 12.0 | 0.00 | 0.06 | 0.05 | 35 | 1014.1 |
| 20260508195038 | 70 | 302 | 2.0 | 12.0 | 0.00 | 0.06 | 0.05 | 35 | 1014.3 |
| 20260508194550 | 70 | 347 | 6.0 | 13.0 | 0.00 | 0.06 | 0.05 | 35 | 1014.3 |
| 20260508194039 | 68 | 6 | 6.0 | 13.0 | 0.00 | 0.06 | 0.05 | 36 | 1014.4 |
| 20260508193537 | 68 | 8 | 2.0 | 11.0 | 0.00 | 0.06 | 0.05 | 35 | 1014.5 |
| 20260508193131 | 68 | 19 | 5.0 | 14.0 | 0.00 | 0.06 | 0.05 | 39 | 1014.4 |
| 20260508192538 | 69 | 77 | 3.0 | 14.0 | 0.00 | 0.06 | 0.05 | 33 | 1014.5 |
| 20260508192039 | 69 | 0 | 3.0 | 14.0 | 0.00 | 0.06 | 0.05 | 35 | 1014.6 |
| 20260508191550 | 68 | 347 | 2.0 | 6.0 | 0.00 | 0.06 | 0.05 | 37 | 1014.8 |
| 20260508191039 | 68 | 0 | 1.0 | 8.0 | 0.00 | 0.06 | 0.05 | 32 | 1014.9 |
| 20260508190538 | 68 | 12 | 3.0 | 8.0 | 0.00 | 0.06 | 0.05 | 38 | 1014.9 |
| 20260508190052 | 68 | 21 | 2.0 | 7.0 | 0.00 | 0.06 | 0.05 | 40 | 1015.0 |
| 20260508185538 | 68 | 270 | 2.0 | 9.0 | 0.00 | 0.06 | 0.05 | 39 | 1014.9 |
| 20260508185038 | 68 | 335 | 2.0 | 9.0 | 0.00 | 0.06 | 0.05 | 36 | 1014.9 |
| 20260508184604 | 66 | 342 | 1.0 | 7.0 | 0.00 | 0.06 | 0.05 | 39 | 1015.0 |
| 20260508184037 | 67 | 342 | 1.0 | 8.0 | 0.00 | 0.06 | 0.05 | 39 | 1015.1 |
| 20260508183537 | 67 | 335 | 1.0 | 8.0 | 0.00 | 0.06 | 0.05 | 42 | 1015.2 |
| 20260508183113 | 66 | 267 | 2.0 | 8.0 | 0.00 | 0.06 | 0.05 | 44 | 1015.3 |
| 20260508182538 | 65 | 108 | 3.0 | 6.0 | 0.00 | 0.06 | 0.05 | 42 | 1015.4 |
| 20260508182037 | 66 | 0 | 1.0 | 7.0 | 0.00 | 0.06 | 0.05 | 41 | 1015.5 |
| 20260508181604 | 66 | 248 | 1.0 | 7.0 | 0.00 | 0.06 | 0.05 | 45 | 1015.6 |
| 20260508181037 | 66 | 198 | 1.0 | 8.0 | 0.00 | 0.06 | 0.05 | 47 | 1015.7 |
| 20260508180537 | 65 | 250 | 3.0 | 8.0 | 0.00 | 0.06 | 0.05 | 44 | 1015.9 |
| 20260508180053 | 65 | 204 | 3.0 | 7.0 | 0.00 | 0.06 | 0.05 | 44 | 1015.9 |
| 20260508175537 | 65 | 204 | 3.0 | 7.0 | 0.00 | 0.06 | 0.05 | 48 | 1016.0 |
| 20260508175038 | 65 | 121 | 1.0 | 7.0 | 0.00 | 0.06 | 0.05 | 49 | 1016.1 |
| 20260508174551 | 65 | 208 | 4.0 | 7.0 | 0.00 | 0.06 | 0.05 | 50 | 1016.1 |
| 20260508174038 | 64 | 181 | 4.0 | 7.0 | 0.00 | 0.06 | 0.05 | 46 | 1016.3 |
| 20260508173538 | 64 | 0 | 2.0 | 8.0 | 0.00 | 0.06 | 0.05 | 53 | 1016.3 |
| 20260508173046 | 62 | 0 | 1.0 | 8.0 | 0.00 | 0.06 | 0.05 | 50 | 1016.4 |
| 20260508172540 | 63 | 246 | 2.0 | 6.0 | 0.00 | 0.06 | 0.05 | 49 | 1016.4 |
| 20260508172040 | 63 | 218 | 3.0 | 7.0 | 0.00 | 0.06 | 0.05 | 49 | 1016.5 |
| 20260508171547 | 63 | 0 | 2.0 | 7.0 | 0.00 | 0.06 | 0.05 | 52 | 1016.6 |
| 20260508171041 | 63 | 198 | 3.0 | 6.0 | 0.00 | 0.06 | 0.05 | 51 | 1016.7 |
| 20260508170537 | 63 | 122 | 1.0 | 7.0 | 0.00 | 0.06 | 0.05 | 50 | 1016.6 |
| 20260508170056 | 62 | 148 | 4.0 | 8.0 | 0.00 | 0.06 | 0.05 | 53 | 1016.7 |
| 20260508165537 | 61 | 193 | 4.0 | 9.0 | 0.00 | 0.06 | 0.05 | 52 | 1016.8 |
| 20260508165037 | 61 | 252 | 5.0 | 9.0 | 0.00 | 0.06 | 0.05 | 54 | 1016.8 |
| 20260508164551 | 61 | 185 | 5.0 | 9.0 | 0.00 | 0.06 | 0.05 | 54 | 1016.8 |
| 20260508164038 | 62 | 183 | 2.0 | 6.0 | 0.00 | 0.06 | 0.05 | 55 | 1016.8 |
| 20260508163537 | 61 | 279 | 2.0 | 7.0 | 0.00 | 0.06 | 0.05 | 55 | 1016.8 |
| 20260508163049 | 60 | 204 | 1.0 | 7.0 | 0.00 | 0.06 | 0.05 | 55 | 1016.8 |
| 20260508162541 | 60 | 189 | 3.0 | 7.0 | 0.00 | 0.06 | 0.05 | 55 | 1017.0 |
| 20260508162037 | 59 | 211 | 2.0 | 9.0 | 0.00 | 0.06 | 0.05 | 57 | 1017.0 |
| 20260508161551 | 59 | 202 | 5.0 | 9.0 | 0.00 | 0.06 | 0.05 | 56 | 1017.0 |
| 20260508161039 | 59 | 237 | 2.0 | 8.0 | 0.00 | 0.06 | 0.05 | 57 | 1017.1 |
| 20260508160538 | 58 | 271 | 3.0 | 8.0 | 0.00 | 0.06 | 0.05 | 58 | 1017.0 |
| 20260508160049 | 58 | 264 | 2.0 | 8.0 | 0.00 | 0.06 | 0.05 | 59 | 1017.0 |
| 20260508155537 | 59 | 240 | 0.0 | 3.0 | 0.00 | 0.06 | 0.05 | 57 | 1017.0 |
| 20260508155038 | 58 | 0 | 0.0 | 5.0 | 0.00 | 0.06 | 0.05 | 59 | 1017.1 |
| 20260508154608 | 57 | 262 | 1.0 | 7.0 | 0.00 | 0.06 | 0.05 | 61 | 1017.1 |
| 20260508154038 | 57 | 227 | 2.0 | 7.0 | 0.00 | 0.06 | 0.05 | 62 | 1017.1 |
| 20260508153538 | 57 | 0 | 1.0 | 6.0 | 0.00 | 0.06 | 0.05 | 60 | 1017.1 |
| 20260508153048 | 57 | 150 | 1.0 | 6.0 | 0.00 | 0.06 | 0.05 | 59 | 1017.1 |
| 20260508152537 | 57 | 269 | 0.0 | 6.0 | 0.00 | 0.06 | 0.05 | 64 | 1017.1 |
| 20260508152038 | 57 | 0 | 0.0 | 6.0 | 0.00 | 0.06 | 0.05 | 67 | 1017.3 |
| 20260508151548 | 56 | 270 | 2.0 | 6.0 | 0.00 | 0.06 | 0.05 | 63 | 1017.2 |
| 20260508151038 | 55 | 12 | 1.0 | 5.0 | 0.00 | 0.06 | 0.05 | 67 | 1017.3 |
| 20260508150538 | 54 | 0 | 2.0 | 5.0 | 0.00 | 0.06 | 0.05 | 69 | 1017.2 |
| 20260508150050 | 53 | 2 | 2.0 | 5.0 | 0.00 | 0.06 | 0.05 | 71 | 1017.2 |
| 20260508145538 | 53 | 2 | 2.0 | 4.0 | 0.00 | 0.06 | 0.05 | 73 | 1017.1 |
| 20260508145040 | 53 | 360 | 1.0 | 4.0 | 0.00 | 0.06 | 0.05 | 74 | 1017.1 |
| 20260508144600 | 52 | 2 | 1.0 | 4.0 | 0.00 | 0.06 | 0.05 | 74 | 1017.1 |
| 20260508144038 | 52 | 2 | 2.0 | 4.0 | 0.00 | 0.06 | 0.05 | 74 | 1017.3 |
| 20260508143540 | 51 | 0 | 0.0 | 2.0 | 0.00 | 0.06 | 0.05 | 77 | 1017.3 |
| 20260508143053 | 51 | 0 | 0.0 | 2.0 | 0.00 | 0.06 | 0.05 | 77 | 1017.3 |